contact:dominique.lefevre@mio.osupytheas.fr, maurice.libes@osupytheas.fr, didier.mallarino@osupytheas.fr
Project:EMSO http://www.emso-fr.org/EMSO-France
Depth: 2436.0 m
Title:EMSO Ligure Ouest : Data MII capteur MICROCAT
DateTime_Computer,Latitude,Longitude,Temperature,Conductivity,Pressure,DateTime_Instrument
DateTime_Computer,Latitude,Longitude,degC,S m-1,dbar,DateTime_Instrument
2023-10-08T00:00:50Z,42.805,6.029,13.3039,4.60113,2470.73,2023-10-08T02:03:14Z
2023-10-08T00:03:53Z,42.805,6.029,13.3047,4.60109,2470.754,2023-10-08T02:06:17Z
2023-10-08T00:06:56Z,42.805,6.029,13.3054,4.60107,2470.74,2023-10-08T02:09:20Z
2023-10-08T00:09:59Z,42.805,6.029,13.3047,4.60110,2470.754,2023-10-08T02:12:23Z
2023-10-08T00:13:03Z,42.805,6.029,13.3042,4.60104,2470.74,2023-10-08T02:15:26Z
2023-10-08T00:16:06Z,42.805,6.029,13.3043,4.60107,2470.763,2023-10-08T02:18:30Z
2023-10-08T00:19:09Z,42.805,6.029,13.3049,4.60113,2470.754,2023-10-08T02:21:33Z
2023-10-08T00:22:12Z,42.805,6.029,13.3040,4.60113,2470.754,2023-10-08T02:24:36Z
2023-10-08T00:25:15Z,42.805,6.029,13.3045,4.60104,2470.74,2023-10-08T02:27:39Z
2023-10-08T00:28:18Z,42.805,6.029,13.3046,4.60109,2470.703,2023-10-08T02:30:42Z
2023-10-08T00:31:21Z,42.805,6.029,13.3043,4.60109,2470.763,2023-10-08T02:33:45Z
2023-10-08T00:34:24Z,42.805,6.029,13.3043,4.60117,2470.777,2023-10-08T02:36:48Z
2023-10-08T00:37:27Z,42.805,6.029,13.3046,4.60125,2470.717,2023-10-08T02:39:51Z
2023-10-08T00:40:30Z,42.805,6.029,13.3047,4.60108,2470.73,2023-10-08T02:42:54Z
2023-10-08T00:43:33Z,42.805,6.029,13.3045,4.60108,2470.73,2023-10-08T02:45:57Z
2023-10-08T00:46:36Z,42.805,6.029,13.3049,4.60111,2470.763,2023-10-08T02:49:00Z
2023-10-08T00:49:39Z,42.805,6.029,13.3046,4.60105,2470.74,2023-10-08T02:52:03Z
2023-10-08T00:52:43Z,42.805,6.029,13.3047,4.60104,2470.717,2023-10-08T02:55:06Z
2023-10-08T00:55:46Z,42.805,6.029,13.3046,4.60105,2470.763,2023-10-08T02:58:10Z
2023-10-08T00:58:49Z,42.805,6.029,13.3048,4.60107,2470.754,2023-10-08T03:01:13Z
2023-10-08T01:01:52Z,42.805,6.029,13.3047,4.60107,2470.74,2023-10-08T03:04:16Z
2023-10-08T01:04:55Z,42.805,6.029,13.3044,4.60107,2470.74,2023-10-08T03:07:19Z
2023-10-08T01:07:58Z,42.805,6.029,13.3042,4.60110,2470.73,2023-10-08T03:10:22Z
2023-10-08T01:11:01Z,42.805,6.029,13.3046,4.60112,2470.754,2023-10-08T03:13:25Z
2023-10-08T01:14:04Z,42.805,6.029,13.3043,4.60104,2470.717,2023-10-08T03:16:28Z
2023-10-08T01:17:07Z,42.805,6.029,13.3048,4.60105,2470.754,2023-10-08T03:19:31Z
2023-10-08T01:20:10Z,42.805,6.029,13.3043,4.60106,2470.754,2023-10-08T03:22:34Z
2023-10-08T01:23:13Z,42.805,6.029,13.3046,4.60107,2470.73,2023-10-08T03:25:37Z
2023-10-08T01:26:16Z,42.805,6.029,13.3047,4.60097,2470.754,2023-10-08T03:28:40Z
2023-10-08T01:29:19Z,42.805,6.029,13.3046,4.60112,2470.717,2023-10-08T03:31:43Z
2023-10-08T01:32:22Z,42.805,6.029,13.3041,4.60106,2470.754,2023-10-08T03:34:46Z
2023-10-08T01:35:26Z,42.805,6.029,13.3044,4.60112,2470.74,2023-10-08T03:37:49Z
2023-10-08T01:38:29Z,42.805,6.029,13.3044,4.60103,2470.717,2023-10-08T03:40:53Z
2023-10-08T01:41:32Z,42.805,6.029,13.3048,4.60106,2470.717,2023-10-08T03:43:56Z
2023-10-08T01:44:35Z,42.805,6.029,13.3046,4.60106,2470.754,2023-10-08T03:46:59Z
2023-10-08T01:47:38Z,42.805,6.029,13.3041,4.60107,2470.717,2023-10-08T03:50:02Z
2023-10-08T01:50:41Z,42.805,6.029,13.3038,4.60114,2470.763,2023-10-08T03:53:05Z
2023-10-08T01:53:44Z,42.805,6.029,13.3041,4.60102,2470.717,2023-10-08T03:56:08Z
2023-10-08T01:56:47Z,42.805,6.029,13.3039,4.60107,2470.754,2023-10-08T03:59:11Z
2023-10-08T01:59:50Z,42.805,6.029,13.3044,4.60102,2470.74,2023-10-08T04:02:14Z
2023-10-08T02:02:53Z,42.805,6.029,13.3044,4.60109,2470.74,2023-10-08T04:05:17Z
2023-10-08T02:05:56Z,42.805,6.029,13.3047,4.60107,2470.754,2023-10-08T04:08:20Z
2023-10-08T02:08:59Z,42.805,6.029,13.3039,4.60102,2470.787,2023-10-08T04:11:23Z
2023-10-08T02:12:02Z,42.805,6.029,13.3041,4.60104,2470.74,2023-10-08T04:14:26Z
2023-10-08T02:15:05Z,42.805,6.029,13.3039,4.60105,2470.73,2023-10-08T04:17:29Z
2023-10-08T02:18:09Z,42.805,6.029,13.3042,4.60112,2470.717,2023-10-08T04:20:32Z
2023-10-08T02:21:12Z,42.805,6.029,13.3045,4.60110,2470.717,2023-10-08T04:23:36Z
2023-10-08T02:24:15Z,42.805,6.029,13.3042,4.60105,2470.74,2023-10-08T04:26:39Z
2023-10-08T02:27:18Z,42.805,6.029,13.3043,4.60105,2470.717,2023-10-08T04:29:42Z
2023-10-08T02:30:21Z,42.805,6.029,13.3048,4.60105,2470.717,2023-10-08T04:32:45Z
2023-10-08T02:33:24Z,42.805,6.029,13.3039,4.60108,2470.74,2023-10-08T04:35:48Z
2023-10-08T02:36:27Z,42.805,6.029,13.3039,4.60106,2470.73,2023-10-08T04:38:51Z
2023-10-08T02:39:30Z,42.805,6.029,13.3044,4.60107,2470.754,2023-10-08T04:41:54Z
2023-10-08T02:42:33Z,42.805,6.029,13.3042,4.60105,2470.763,2023-10-08T04:44:57Z
2023-10-08T02:45:36Z,42.805,6.029,13.3039,4.60108,2470.74,2023-10-08T04:48:00Z
2023-10-08T02:48:39Z,42.805,6.029,13.3041,4.60100,2470.754,2023-10-08T04:51:03Z
2023-10-08T02:51:42Z,42.805,6.029,13.3041,4.60101,2470.717,2023-10-08T04:54:06Z
2023-10-08T02:54:46Z,42.805,6.029,13.3041,4.60104,2470.717,2023-10-08T04:57:09Z
2023-10-08T02:57:49Z,42.805,6.029,13.3045,4.60107,2470.717,2023-10-08T05:00:13Z
2023-10-08T03:00:52Z,42.805,6.029,13.3041,4.60104,2470.74,2023-10-08T05:03:16Z
2023-10-08T03:03:55Z,42.805,6.029,13.3041,4.60100,2470.74,2023-10-08T05:06:19Z
2023-10-08T03:06:58Z,42.805,6.029,13.3038,4.60102,2470.717,2023-10-08T05:09:22Z
2023-10-08T03:10:01Z,42.805,6.029,13.3036,4.60109,2470.717,2023-10-08T05:12:25Z
2023-10-08T03:13:04Z,42.805,6.029,13.3043,4.60102,2470.763,2023-10-08T05:15:28Z
2023-10-08T03:16:07Z,42.805,6.029,13.3047,4.60102,2470.74,2023-10-08T05:18:31Z
2023-10-08T03:19:10Z,42.805,6.029,13.3040,4.60104,2470.74,2023-10-08T05:21:34Z
2023-10-08T03:22:13Z,42.805,6.029,13.3039,4.60111,2470.74,2023-10-08T05:24:37Z
2023-10-08T03:25:16Z,42.805,6.029,13.3047,4.60107,2470.777,2023-10-08T05:27:40Z
2023-10-08T03:28:19Z,42.805,6.029,13.3046,4.60103,2470.754,2023-10-08T05:30:43Z
2023-10-08T03:31:22Z,42.805,6.029,13.3044,4.60107,2470.777,2023-10-08T05:33:46Z
2023-10-08T03:34:25Z,42.805,6.029,13.3040,4.60104,2470.73,2023-10-08T05:36:49Z
2023-10-08T03:37:29Z,42.805,6.029,13.3043,4.60099,2470.73,2023-10-08T05:39:53Z
2023-10-08T03:40:32Z,42.805,6.029,13.3044,4.60102,2470.73,2023-10-08T05:42:56Z
2023-10-08T03:43:35Z,42.805,6.029,13.3044,4.60102,2470.74,2023-10-08T05:45:59Z
2023-10-08T03:46:38Z,42.805,6.029,13.3046,4.60106,2470.74,2023-10-08T05:49:02Z
2023-10-08T03:49:41Z,42.805,6.029,13.3043,4.60106,2470.754,2023-10-08T05:52:05Z
2023-10-08T03:52:44Z,42.805,6.029,13.3045,4.60114,2470.717,2023-10-08T05:55:08Z
2023-10-08T03:55:47Z,42.805,6.029,13.3039,4.60109,2470.754,2023-10-08T05:58:11Z
2023-10-08T03:58:50Z,42.805,6.029,13.3041,4.60105,2470.74,2023-10-08T06:01:14Z
2023-10-08T04:01:53Z,42.805,6.029,13.3041,4.60103,2470.73,2023-10-08T06:04:17Z
2023-10-08T04:04:56Z,42.805,6.029,13.3041,4.60098,2470.73,2023-10-08T06:07:20Z
2023-10-08T04:07:59Z,42.805,6.029,13.3041,4.60103,2470.73,2023-10-08T06:10:23Z
2023-10-08T04:11:02Z,42.805,6.029,13.3043,4.60104,2470.717,2023-10-08T06:13:26Z
2023-10-08T04:14:05Z,42.805,6.029,13.3041,4.60104,2470.717,2023-10-08T06:16:29Z
2023-10-08T04:17:09Z,42.805,6.029,13.3041,4.60105,2470.707,2023-10-08T06:19:32Z
2023-10-08T04:20:12Z,42.805,6.029,13.3039,4.60108,2470.717,2023-10-08T06:22:36Z
2023-10-08T04:23:15Z,42.805,6.029,13.3034,4.60103,2470.754,2023-10-08T06:25:39Z
2023-10-08T04:26:18Z,42.805,6.029,13.3041,4.60107,2470.693,2023-10-08T06:28:42Z
2023-10-08T04:29:21Z,42.805,6.029,13.3037,4.60103,2470.74,2023-10-08T06:31:45Z
2023-10-08T04:32:22Z,42.805,6.029,13.3037,4.60099,2470.74,2023-10-08T06:34:46Z
2023-10-08T04:35:25Z,42.805,6.029,13.3036,4.60103,2470.74,2023-10-08T06:37:49Z
2023-10-08T04:38:28Z,42.805,6.029,13.3037,4.60099,2470.707,2023-10-08T06:40:52Z
2023-10-08T04:41:31Z,42.805,6.029,13.3039,4.60104,2470.74,2023-10-08T06:43:55Z
2023-10-08T04:44:34Z,42.805,6.029,13.3041,4.60103,2470.693,2023-10-08T06:46:58Z
2023-10-08T04:47:38Z,42.805,6.029,13.3038,4.60105,2470.787,2023-10-08T06:50:01Z
2023-10-08T04:50:41Z,42.805,6.029,13.3037,4.60108,2470.717,2023-10-08T06:53:05Z
2023-10-08T04:53:44Z,42.805,6.029,13.3043,4.60109,2470.707,2023-10-08T06:56:08Z
2023-10-08T04:56:47Z,42.805,6.029,13.3041,4.60107,2470.717,2023-10-08T06:59:11Z
2023-10-08T04:59:50Z,42.805,6.029,13.3045,4.60104,2470.74,2023-10-08T07:02:14Z
2023-10-08T05:02:53Z,42.805,6.029,13.3039,4.60104,2470.74,2023-10-08T07:05:17Z
2023-10-08T05:05:56Z,42.805,6.029,13.3034,4.60104,2470.703,2023-10-08T07:08:20Z
2023-10-08T05:08:59Z,42.805,6.029,13.3040,4.60104,2470.74,2023-10-08T07:11:23Z
2023-10-08T05:12:02Z,42.805,6.029,13.3043,4.60104,2470.717,2023-10-08T07:14:26Z
2023-10-08T05:15:05Z,42.805,6.029,13.3043,4.60102,2470.754,2023-10-08T07:17:29Z
2023-10-08T05:18:08Z,42.805,6.029,13.3037,4.60105,2470.74,2023-10-08T07:20:32Z
2023-10-08T05:21:11Z,42.805,6.029,13.3051,4.60105,2470.717,2023-10-08T07:23:35Z
2023-10-08T05:24:14Z,42.805,6.029,13.3043,4.60106,2470.717,2023-10-08T07:26:38Z
2023-10-08T05:27:18Z,42.805,6.029,13.3046,4.60103,2470.73,2023-10-08T07:29:41Z
2023-10-08T05:30:21Z,42.805,6.029,13.3044,4.60107,2470.754,2023-10-08T07:32:45Z
2023-10-08T05:33:24Z,42.805,6.029,13.3044,4.60099,2470.73,2023-10-08T07:35:48Z
2023-10-08T05:36:27Z,42.805,6.029,13.3046,4.60099,2470.693,2023-10-08T07:38:51Z
2023-10-08T05:39:30Z,42.805,6.029,13.3042,4.60106,2470.754,2023-10-08T07:41:54Z
2023-10-08T05:42:33Z,42.805,6.029,13.3041,4.60103,2470.717,2023-10-08T07:44:57Z
2023-10-08T05:45:36Z,42.805,6.029,13.3041,4.60105,2470.717,2023-10-08T07:48:00Z
2023-10-08T05:48:39Z,42.805,6.029,13.3042,4.60107,2470.73,2023-10-08T07:51:03Z
2023-10-08T05:51:42Z,42.805,6.029,13.3043,4.60116,2470.707,2023-10-08T07:54:06Z
2023-10-08T05:54:45Z,42.805,6.029,13.3043,4.60108,2470.717,2023-10-08T07:57:09Z
2023-10-08T05:57:48Z,42.805,6.029,13.3049,4.60115,2470.693,2023-10-08T08:00:12Z
2023-10-08T06:00:51Z,42.805,6.029,13.3043,4.60106,2470.73,2023-10-08T08:03:15Z
2023-10-08T06:03:54Z,42.805,6.029,13.3042,4.60114,2470.67,2023-10-08T08:06:18Z
2023-10-08T06:06:58Z,42.805,6.029,13.3044,4.60106,2470.717,2023-10-08T08:09:21Z
2023-10-08T06:10:01Z,42.805,6.029,13.3034,4.60106,2470.693,2023-10-08T08:12:25Z
2023-10-08T06:13:04Z,42.805,6.029,13.3041,4.60103,2470.693,2023-10-08T08:15:28Z
2023-10-08T06:16:07Z,42.805,6.029,13.3045,4.60110,2470.73,2023-10-08T08:18:31Z
2023-10-08T06:19:10Z,42.805,6.029,13.3043,4.60113,2470.717,2023-10-08T08:21:34Z
2023-10-08T06:22:13Z,42.805,6.029,13.3043,4.60112,2470.73,2023-10-08T08:24:37Z
2023-10-08T06:25:16Z,42.805,6.029,13.3051,4.60109,2470.707,2023-10-08T08:27:40Z
2023-10-08T06:28:19Z,42.805,6.029,13.3049,4.60112,2470.73,2023-10-08T08:30:43Z
2023-10-08T06:31:22Z,42.805,6.029,13.3043,4.60110,2470.717,2023-10-08T08:33:46Z
2023-10-08T06:34:25Z,42.805,6.029,13.3036,4.60106,2470.693,2023-10-08T08:36:49Z
2023-10-08T06:37:28Z,42.805,6.029,13.3041,4.60104,2470.73,2023-10-08T08:39:52Z
2023-10-08T06:40:31Z,42.805,6.029,13.3043,4.60104,2470.717,2023-10-08T08:42:55Z
2023-10-08T06:43:34Z,42.805,6.029,13.3043,4.60104,2470.707,2023-10-08T08:45:58Z
2023-10-08T06:46:38Z,42.805,6.029,13.3037,4.60096,2470.73,2023-10-08T08:49:01Z
2023-10-08T06:49:41Z,42.805,6.029,13.3042,4.60107,2470.707,2023-10-08T08:52:05Z
2023-10-08T06:52:44Z,42.805,6.029,13.3041,4.60105,2470.717,2023-10-08T08:55:08Z
2023-10-08T06:55:47Z,42.805,6.029,13.3042,4.60110,2470.717,2023-10-08T08:58:11Z
2023-10-08T06:58:50Z,42.805,6.029,13.3046,4.60105,2470.73,2023-10-08T09:01:14Z
2023-10-08T07:01:53Z,42.805,6.029,13.3046,4.60107,2470.73,2023-10-08T09:04:17Z
2023-10-08T07:04:56Z,42.805,6.029,13.3046,4.60100,2470.717,2023-10-08T09:07:20Z
2023-10-08T07:07:59Z,42.805,6.029,13.3038,4.60098,2470.693,2023-10-08T09:10:23Z
2023-10-08T07:11:02Z,42.805,6.029,13.3037,4.60102,2470.717,2023-10-08T09:13:26Z
2023-10-08T07:14:05Z,42.805,6.029,13.3043,4.60103,2470.684,2023-10-08T09:16:29Z
2023-10-08T07:17:08Z,42.805,6.029,13.3046,4.60104,2470.693,2023-10-08T09:19:32Z
2023-10-08T07:20:11Z,42.805,6.029,13.3043,4.60107,2470.717,2023-10-08T09:22:35Z
2023-10-08T07:23:14Z,42.805,6.029,13.3040,4.60103,2470.693,2023-10-08T09:25:38Z
2023-10-08T07:26:18Z,42.805,6.029,13.3037,4.60102,2470.693,2023-10-08T09:28:41Z
2023-10-08T07:29:21Z,42.805,6.029,13.3053,4.60108,2470.67,2023-10-08T09:31:45Z
2023-10-08T07:32:24Z,42.805,6.029,13.3041,4.60099,2470.67,2023-10-08T09:34:48Z
2023-10-08T07:35:27Z,42.805,6.029,13.3039,4.60107,2470.754,2023-10-08T09:37:51Z
2023-10-08T07:38:30Z,42.805,6.029,13.3042,4.60115,2470.693,2023-10-08T09:40:54Z
2023-10-08T07:41:33Z,42.805,6.029,13.3043,4.60104,2470.707,2023-10-08T09:43:57Z
2023-10-08T07:44:36Z,42.805,6.029,13.3043,4.60110,2470.693,2023-10-08T09:47:00Z
2023-10-08T07:47:39Z,42.805,6.029,13.3045,4.60109,2470.73,2023-10-08T09:50:03Z
2023-10-08T07:50:42Z,42.805,6.029,13.3041,4.60109,2470.707,2023-10-08T09:53:06Z
2023-10-08T07:53:45Z,42.805,6.029,13.3049,4.60101,2470.707,2023-10-08T09:56:09Z
2023-10-08T07:56:48Z,42.805,6.029,13.3040,4.60104,2470.693,2023-10-08T09:59:12Z
2023-10-08T07:59:51Z,42.805,6.029,13.3043,4.60104,2470.67,2023-10-08T10:02:15Z
2023-10-08T08:02:55Z,42.805,6.029,13.3041,4.60101,2470.693,2023-10-08T10:05:18Z
2023-10-08T08:05:58Z,42.805,6.029,13.3037,4.60103,2470.693,2023-10-08T10:08:22Z
2023-10-08T08:09:01Z,42.805,6.029,13.3039,4.60109,2470.679,2023-10-08T10:11:25Z
2023-10-08T08:12:04Z,42.805,6.029,13.3044,4.60106,2470.67,2023-10-08T10:14:28Z
2023-10-08T08:15:07Z,42.805,6.029,13.3041,4.60108,2470.684,2023-10-08T10:17:31Z
2023-10-08T08:18:10Z,42.805,6.029,13.3043,4.60107,2470.67,2023-10-08T10:20:34Z
2023-10-08T08:21:13Z,42.805,6.029,13.3043,4.60110,2470.693,2023-10-08T10:23:37Z
2023-10-08T08:24:16Z,42.805,6.029,13.3046,4.60111,2470.693,2023-10-08T10:26:40Z
2023-10-08T08:27:19Z,42.805,6.029,13.3051,4.60110,2470.693,2023-10-08T10:29:43Z
2023-10-08T08:30:24Z,42.805,6.029,13.3041,4.60107,2470.684,2023-10-08T10:32:48Z
2023-10-08T08:33:27Z,42.805,6.029,13.3041,4.60104,2470.717,2023-10-08T10:35:51Z
2023-10-08T08:36:30Z,42.805,6.029,13.3048,4.60112,2470.717,2023-10-08T10:38:54Z
2023-10-08T08:39:33Z,42.805,6.029,13.3045,4.60110,2470.693,2023-10-08T10:41:57Z
2023-10-08T08:42:36Z,42.805,6.029,13.3039,4.60104,2470.707,2023-10-08T10:45:00Z
2023-10-08T08:45:39Z,42.805,6.029,13.3036,4.60104,2470.693,2023-10-08T10:48:03Z
2023-10-08T08:48:42Z,42.805,6.029,13.3041,4.60120,2470.693,2023-10-08T10:51:06Z
2023-10-08T08:51:45Z,42.805,6.029,13.3043,4.60107,2470.693,2023-10-08T10:54:09Z
2023-10-08T08:54:49Z,42.805,6.029,13.3038,4.60104,2470.707,2023-10-08T10:57:13Z
2023-10-08T08:57:52Z,42.805,6.029,13.3043,4.60112,2470.73,2023-10-08T11:00:16Z
2023-10-08T09:00:55Z,42.805,6.029,13.3042,4.60104,2470.693,2023-10-08T11:03:19Z
2023-10-08T09:03:58Z,42.805,6.029,13.3044,4.60109,2470.693,2023-10-08T11:06:22Z
2023-10-08T09:07:01Z,42.805,6.029,13.3044,4.60112,2470.73,2023-10-08T11:09:25Z
2023-10-08T09:10:04Z,42.805,6.029,13.3042,4.60111,2470.707,2023-10-08T11:12:28Z
2023-10-08T09:13:07Z,42.805,6.029,13.3039,4.60106,2470.67,2023-10-08T11:15:31Z
2023-10-08T09:16:10Z,42.805,6.029,13.3041,4.60110,2470.67,2023-10-08T11:18:34Z
2023-10-08T09:19:13Z,42.805,6.029,13.3040,4.60113,2470.73,2023-10-08T11:21:37Z
2023-10-08T09:22:16Z,42.805,6.029,13.3039,4.60104,2470.67,2023-10-08T11:24:40Z
2023-10-08T09:25:19Z,42.805,6.029,13.3041,4.60102,2470.707,2023-10-08T11:27:43Z
2023-10-08T09:28:22Z,42.805,6.029,13.3038,4.60099,2470.693,2023-10-08T11:30:46Z
2023-10-08T09:31:26Z,42.805,6.029,13.3044,4.60105,2470.74,2023-10-08T11:33:49Z
2023-10-08T09:34:29Z,42.805,6.029,13.3046,4.60106,2470.717,2023-10-08T11:36:53Z
2023-10-08T09:37:32Z,42.805,6.029,13.3047,4.60104,2470.717,2023-10-08T11:39:56Z
2023-10-08T09:40:35Z,42.805,6.029,13.3042,4.60103,2470.693,2023-10-08T11:42:59Z
2023-10-08T09:43:38Z,42.805,6.029,13.3036,4.60104,2470.717,2023-10-08T11:46:02Z
2023-10-08T09:46:41Z,42.805,6.029,13.3039,4.60106,2470.717,2023-10-08T11:49:05Z
2023-10-08T09:49:44Z,42.805,6.029,13.3041,4.60108,2470.693,2023-10-08T11:52:08Z
2023-10-08T09:52:47Z,42.805,6.029,13.3046,4.60110,2470.717,2023-10-08T11:55:11Z
2023-10-08T09:55:50Z,42.805,6.029,13.3045,4.60108,2470.717,2023-10-08T11:58:14Z
2023-10-08T09:58:53Z,42.805,6.029,13.3043,4.60102,2470.717,2023-10-08T12:01:17Z
2023-10-08T10:01:56Z,42.805,6.029,13.3044,4.60109,2470.693,2023-10-08T12:04:20Z
2023-10-08T10:04:59Z,42.805,6.029,13.3050,4.60106,2470.693,2023-10-08T12:07:23Z
2023-10-08T10:08:03Z,42.805,6.029,13.3048,4.60108,2470.717,2023-10-08T12:10:27Z
2023-10-08T10:11:06Z,42.805,6.029,13.3043,4.60104,2470.73,2023-10-08T12:13:30Z
2023-10-08T10:14:09Z,42.805,6.029,13.3054,4.60105,2470.693,2023-10-08T12:16:33Z
2023-10-08T10:17:12Z,42.805,6.029,13.3041,4.60110,2470.693,2023-10-08T12:19:36Z
2023-10-08T10:20:15Z,42.805,6.029,13.3041,4.60107,2470.73,2023-10-08T12:22:39Z
2023-10-08T10:23:18Z,42.805,6.029,13.3050,4.60106,2470.707,2023-10-08T12:25:42Z
2023-10-08T10:26:21Z,42.805,6.029,13.3044,4.60104,2470.754,2023-10-08T12:28:45Z
2023-10-08T10:29:24Z,42.805,6.029,13.3045,4.60111,2470.707,2023-10-08T12:31:48Z
2023-10-08T10:32:27Z,42.805,6.029,13.3042,4.60102,2470.717,2023-10-08T12:34:51Z
2023-10-08T10:35:30Z,42.805,6.029,13.3051,4.60104,2470.73,2023-10-08T12:37:54Z
2023-10-08T10:38:33Z,42.805,6.029,13.3046,4.60103,2470.717,2023-10-08T12:40:57Z
2023-10-08T10:41:37Z,42.805,6.029,13.3043,4.60107,2470.754,2023-10-08T12:44:00Z
2023-10-08T10:44:40Z,42.805,6.029,13.3036,4.60108,2470.717,2023-10-08T12:47:04Z
2023-10-08T10:47:43Z,42.805,6.029,13.3035,4.60105,2470.73,2023-10-08T12:50:07Z
2023-10-08T10:50:46Z,42.805,6.029,13.3040,4.60103,2470.74,2023-10-08T12:53:10Z
2023-10-08T10:53:49Z,42.805,6.029,13.3040,4.60106,2470.74,2023-10-08T12:56:13Z
2023-10-08T10:56:52Z,42.805,6.029,13.3052,4.60123,2470.717,2023-10-08T12:59:16Z
2023-10-08T10:59:55Z,42.805,6.029,13.3046,4.60112,2470.763,2023-10-08T13:02:19Z
2023-10-08T11:02:58Z,42.805,6.029,13.3045,4.60104,2470.74,2023-10-08T13:05:22Z
2023-10-08T11:06:01Z,42.805,6.029,13.3043,4.60108,2470.754,2023-10-08T13:08:25Z
2023-10-08T11:09:04Z,42.805,6.029,13.3046,4.60100,2470.717,2023-10-08T13:11:28Z
2023-10-08T11:12:07Z,42.805,6.029,13.3047,4.60104,2470.693,2023-10-08T13:14:31Z
2023-10-08T11:15:10Z,42.805,6.029,13.3048,4.60103,2470.754,2023-10-08T13:17:34Z
2023-10-08T11:18:14Z,42.805,6.029,13.3046,4.60109,2470.744,2023-10-08T13:20:38Z
2023-10-08T11:21:17Z,42.805,6.029,13.3048,4.60117,2470.74,2023-10-08T13:23:41Z
2023-10-08T11:24:20Z,42.805,6.029,13.3046,4.60107,2470.74,2023-10-08T13:26:44Z
2023-10-08T11:27:23Z,42.805,6.029,13.3049,4.60111,2470.74,2023-10-08T13:29:47Z
2023-10-08T11:30:26Z,42.805,6.029,13.3051,4.60108,2470.717,2023-10-08T13:32:50Z
2023-10-08T11:33:29Z,42.805,6.029,13.3048,4.60108,2470.777,2023-10-08T13:35:53Z
2023-10-08T11:36:32Z,42.805,6.029,13.3048,4.60110,2470.777,2023-10-08T13:38:56Z
2023-10-08T11:39:35Z,42.805,6.029,13.3046,4.60104,2470.74,2023-10-08T13:41:59Z
2023-10-08T11:42:38Z,42.805,6.029,13.3046,4.60107,2470.754,2023-10-08T13:45:02Z
2023-10-08T11:45:41Z,42.805,6.029,13.3043,4.60106,2470.754,2023-10-08T13:48:05Z
2023-10-08T11:48:44Z,42.805,6.029,13.3044,4.60101,2470.73,2023-10-08T13:51:08Z
2023-10-08T11:51:48Z,42.805,6.029,13.3046,4.60107,2470.73,2023-10-08T13:54:11Z
2023-10-08T11:54:51Z,42.805,6.029,13.3048,4.60109,2470.74,2023-10-08T13:57:15Z
2023-10-08T11:57:54Z,42.805,6.029,13.3055,4.60113,2470.75,2023-10-08T14:00:18Z
2023-10-08T12:00:57Z,42.805,6.029,13.3035,4.60106,2470.74,2023-10-08T14:03:21Z
2023-10-08T12:04:00Z,42.805,6.029,13.3046,4.60107,2470.763,2023-10-08T14:06:24Z
2023-10-08T12:07:03Z,42.805,6.029,13.3045,4.60106,2470.74,2023-10-08T14:09:27Z
2023-10-08T12:10:06Z,42.805,6.029,13.3048,4.60104,2470.754,2023-10-08T14:12:30Z
2023-10-08T12:13:09Z,42.805,6.029,13.3048,4.60105,2470.777,2023-10-08T14:15:33Z
2023-10-08T12:16:12Z,42.805,6.029,13.3041,4.60107,2470.763,2023-10-08T14:18:36Z
2023-10-08T12:19:15Z,42.805,6.029,13.3051,4.60104,2470.777,2023-10-08T14:21:39Z
2023-10-08T12:22:18Z,42.805,6.029,13.3049,4.60106,2470.74,2023-10-08T14:24:42Z
2023-10-08T12:25:21Z,42.805,6.029,13.3044,4.60107,2470.717,2023-10-08T14:27:45Z
2023-10-08T12:28:24Z,42.805,6.029,13.3039,4.60104,2470.74,2023-10-08T14:30:48Z
2023-10-08T12:31:28Z,42.805,6.029,13.3045,4.60111,2470.763,2023-10-08T14:33:52Z
2023-10-08T12:34:31Z,42.805,6.029,13.3044,4.60111,2470.763,2023-10-08T14:36:55Z
2023-10-08T12:37:34Z,42.805,6.029,13.3042,4.60104,2470.777,2023-10-08T14:39:58Z
2023-10-08T12:40:37Z,42.805,6.029,13.3048,4.60105,2470.777,2023-10-08T14:43:01Z
2023-10-08T12:43:40Z,42.805,6.029,13.3048,4.60123,2470.74,2023-10-08T14:46:04Z
2023-10-08T12:46:43Z,42.805,6.029,13.3051,4.60111,2470.777,2023-10-08T14:49:07Z
2023-10-08T12:49:46Z,42.805,6.029,13.3049,4.60112,2470.787,2023-10-08T14:52:10Z
2023-10-08T12:52:49Z,42.805,6.029,13.3046,4.60107,2470.777,2023-10-08T14:55:13Z
2023-10-08T12:55:52Z,42.805,6.029,13.3043,4.60110,2470.763,2023-10-08T14:58:16Z
2023-10-08T12:58:55Z,42.805,6.029,13.3047,4.60114,2470.777,2023-10-08T15:01:19Z
2023-10-08T13:01:58Z,42.805,6.029,13.3048,4.60111,2470.726,2023-10-08T15:04:22Z
2023-10-08T13:05:01Z,42.805,6.029,13.3047,4.60112,2470.74,2023-10-08T15:07:25Z
2023-10-08T13:08:05Z,42.805,6.029,13.3043,4.60115,2470.8,2023-10-08T15:10:28Z
2023-10-08T13:11:08Z,42.805,6.029,13.3052,4.60110,2470.763,2023-10-08T15:13:32Z
2023-10-08T13:14:11Z,42.805,6.029,13.3050,4.60108,2470.763,2023-10-08T15:16:35Z
2023-10-08T13:17:14Z,42.805,6.029,13.3054,4.60108,2470.777,2023-10-08T15:19:38Z
2023-10-08T13:20:17Z,42.805,6.029,13.3046,4.60109,2470.74,2023-10-08T15:22:41Z
2023-10-08T13:23:20Z,42.805,6.029,13.3046,4.60111,2470.74,2023-10-08T15:25:44Z
2023-10-08T13:26:23Z,42.805,6.029,13.3047,4.60112,2470.763,2023-10-08T15:28:47Z
2023-10-08T13:29:26Z,42.805,6.029,13.3051,4.60113,2470.777,2023-10-08T15:31:50Z
2023-10-08T13:32:29Z,42.805,6.029,13.3048,4.60104,2470.777,2023-10-08T15:34:53Z
2023-10-08T13:35:32Z,42.805,6.029,13.3054,4.60102,2470.787,2023-10-08T15:37:56Z
2023-10-08T13:38:35Z,42.805,6.029,13.3053,4.60114,2470.787,2023-10-08T15:40:59Z
2023-10-08T13:41:38Z,42.805,6.029,13.3043,4.60108,2470.81,2023-10-08T15:44:02Z
2023-10-08T13:44:42Z,42.805,6.029,13.3038,4.60117,2470.763,2023-10-08T15:47:05Z
2023-10-08T13:47:45Z,42.805,6.029,13.3045,4.60106,2470.777,2023-10-08T15:50:09Z
2023-10-08T13:50:48Z,42.805,6.029,13.3042,4.60110,2470.777,2023-10-08T15:53:12Z
2023-10-08T13:53:51Z,42.805,6.029,13.3044,4.60107,2470.824,2023-10-08T15:56:15Z
2023-10-08T13:56:54Z,42.805,6.029,13.3051,4.60108,2470.777,2023-10-08T15:59:18Z
2023-10-08T13:59:57Z,42.805,6.029,13.3040,4.60102,2470.81,2023-10-08T16:02:21Z
2023-10-08T14:03:00Z,42.805,6.029,13.3040,4.60097,2470.8,2023-10-08T16:05:24Z
2023-10-08T14:06:03Z,42.805,6.029,13.3040,4.60107,2470.8,2023-10-08T16:08:27Z
2023-10-08T14:09:06Z,42.805,6.029,13.3052,4.60110,2470.824,2023-10-08T16:11:30Z
2023-10-08T14:12:09Z,42.805,6.029,13.3048,4.60102,2470.787,2023-10-08T16:14:33Z
2023-10-08T14:15:12Z,42.805,6.029,13.3043,4.60107,2470.81,2023-10-08T16:17:36Z
2023-10-08T14:18:15Z,42.805,6.029,13.3044,4.60117,2470.787,2023-10-08T16:20:39Z
2023-10-08T14:21:19Z,42.805,6.029,13.3045,4.60111,2470.81,2023-10-08T16:23:42Z
2023-10-08T14:24:22Z,42.805,6.029,13.3046,4.60112,2470.81,2023-10-08T16:26:46Z
2023-10-08T14:27:25Z,42.805,6.029,13.3050,4.60109,2470.824,2023-10-08T16:29:49Z
2023-10-08T14:30:26Z,42.805,6.029,13.3048,4.60098,2470.763,2023-10-08T16:32:50Z
2023-10-08T14:33:30Z,42.805,6.029,13.3040,4.60108,2470.824,2023-10-08T16:35:53Z
2023-10-08T14:36:33Z,42.805,6.029,13.3041,4.60110,2470.8,2023-10-08T16:38:57Z
2023-10-08T14:39:36Z,42.805,6.029,13.3042,4.60119,2470.787,2023-10-08T16:42:00Z
2023-10-08T14:42:39Z,42.805,6.029,13.3049,4.60113,2470.787,2023-10-08T16:45:03Z
2023-10-08T14:45:42Z,42.805,6.029,13.3048,4.60110,2470.8,2023-10-08T16:48:06Z
2023-10-08T14:48:45Z,42.805,6.029,13.3050,4.60107,2470.8,2023-10-08T16:51:09Z
2023-10-08T14:51:48Z,42.805,6.029,13.3047,4.60102,2470.81,2023-10-08T16:54:12Z
2023-10-08T14:54:51Z,42.805,6.029,13.3046,4.60115,2470.824,2023-10-08T16:57:15Z
2023-10-08T14:57:54Z,42.805,6.029,13.3043,4.60112,2470.787,2023-10-08T17:00:18Z
2023-10-08T15:00:57Z,42.805,6.029,13.3045,4.60111,2470.81,2023-10-08T17:03:21Z